When you browse on this site, cookies collect data to enhance your experience and personalize the content and advertising you see.
Visit our Privacy Policy to learn more. By continuing to use the site, you agree to this use of cookies and data.
  • En España
  • Lista de países
  • Para 7 días
  • Temperatura del agua
  • El tiempo en el mapa
  • Informadores
  • user-avatar
    Iniciar sesión

    Tiempo cada hora Cottbus

    Hoy, 6 Junio, Sábado

    Tiempo Temperatura Precipitaciones Viento Presión Humedad
    00:00 +10°C° 0 mm 5 mps 742 mmHg 84%
    01:00 +9°C° 0 mm 5 mps 743 mmHg 85%
    02:00 +8°C° 0 mm 4 mps 743 mmHg 86%
    03:00 +7°C° 0 mm 4 mps 744 mmHg 88%
    04:00 +8°C° 0 mm 3 mps 744 mmHg 90%
    05:00 +8°C° 0 mm 4 mps 744 mmHg 83%
    06:00 +10°C° 0 mm 5 mps 745 mmHg 75%
    07:00 +13°C° 0 mm 5 mps 745 mmHg 68%
    08:00 +14°C° 0 mm 5 mps 745 mmHg 62%
    09:00 +16°C° 0 mm 6 mps 746 mmHg 56%
    10:00 +17°C° 0 mm 6 mps 746 mmHg 49%
    11:00 +17°C° 0 mm 6 mps 746 mmHg 50%
    12:00 +18°C° 0 mm 7 mps 746 mmHg 51%
    13:00 +18°C° 0 mm 8 mps 746 mmHg 51%
    14:00 +17°C° 0 mm 7 mps 746 mmHg 56%
    15:00 +16°C° 0 mm 6 mps 746 mmHg 61%
    16:00 +15°C° 0 mm 6 mps 746 mmHg 66%
    17:00 +15°C° 0 mm 5 mps 747 mmHg 68%
    18:00 +16°C° 0 mm 3 mps 747 mmHg 69%
    19:00 +16°C° 0 mm 2 mps 747 mmHg 71%
    20:00 +14°C° 0 mm 3 mps 747 mmHg 77%
    21:00 +13°C° 0 mm 3 mps 748 mmHg 82%
    22:00 +12°C° 0 mm 3 mps 748 mmHg 88%
    23:00 +11°C° 0 mm 3 mps 748 mmHg 90%

    Mañana, 7 Junio, Domingo

    Tiempo Temperatura Precipitaciones Viento Presión Humedad
    00:00 +11°C° 0 mm 3 mps 748 mmHg 91%
    01:00 +10°C° 0 mm 2 mps 748 mmHg 93%
    02:00 +10°C° 0 mm 2 mps 748 mmHg 93%
    03:00 +10°C° 0 mm 2 mps 748 mmHg 93%
    04:00 +10°C° 0 mm 2 mps 748 mmHg 92%
    05:00 +13°C° 0 mm 2 mps 749 mmHg 86%
    06:00 +14°C° 0 mm 2 mps 749 mmHg 79%
    07:00 +16°C° 0 mm 2 mps 749 mmHg 72%
    08:00 +17°C° 0 mm 2 mps 749 mmHg 67%
    09:00 +18°C° 0 mm 2 mps 749 mmHg 61%
    10:00 +19°C° 0 mm 2 mps 749 mmHg 56%
    11:00 +20°C° 0 mm 2 mps 749 mmHg 56%
    12:00 +20°C° 0 mm 2 mps 750 mmHg 56%
    13:00 +20°C° 0 mm 3 mps 750 mmHg 56%
    14:00 +20°C° 0 mm 2 mps 750 mmHg 56%
    15:00 +21°C° 0 mm 2 mps 750 mmHg 56%
    16:00 +21°C° 0 mm 2 mps 750 mmHg 55%
    17:00 +20°C° 0 mm 2 mps 750 mmHg 59%
    18:00 +19°C° 0 mm 2 mps 750 mmHg 63%
    19:00 +18°C° 0 mm 2 mps 750 mmHg 67%
    20:00 +18°C° 0 mm 2 mps 750 mmHg 66%
    21:00 +17°C° 0 mm 2 mps 751 mmHg 65%
    22:00 +16°C° 0 mm 2 mps 751 mmHg 64%
    23:00 +16°C° 0.1 mm 2 mps 751 mmHg 68%

    Pasado mañana, 8 Junio, Lunes

    Tiempo Temperatura Precipitaciones Viento Presión Humedad
    00:00 +14°C° 0.1 mm 3 mps 751 mmHg 72%
    01:00 +13°C° 0.1 mm 3 mps 751 mmHg 76%
    02:00 +13°C° 1 mm 3 mps 751 mmHg 82%
    03:00 +12°C° 1 mm 3 mps 751 mmHg 88%
    04:00 +11°C° 1 mm 3 mps 751 mmHg 95%
    05:00 +12°C° 1.7 mm 2 mps 751 mmHg 95%
    06:00 +13°C° 1.7 mm 2 mps 752 mmHg 95%
    07:00 +13°C° 1.7 mm 1 mps 752 mmHg 95%
    08:00 +14°C° 0.4 mm 1 mps 752 mmHg 92%
    09:00 +14°C° 0.4 mm 1 mps 752 mmHg 88%
    10:00 +15°C° 0.4 mm 1 mps 753 mmHg 84%
    11:00 +18°C° 0.1 mm 1 mps 753 mmHg 76%
    12:00 +19°C° 0.1 mm 1 mps 753 mmHg 68%
    13:00 +21°C° 0.1 mm 1 mps 753 mmHg 60%
    14:00 +20°C° 0.1 mm 2 mps 753 mmHg 57%
    15:00 +20°C° 0.1 mm 2 mps 753 mmHg 55%
    16:00 +20°C° 0.1 mm 2 mps 753 mmHg 52%
    17:00 +20°C° 0 mm 2 mps 753 mmHg 56%
    18:00 +20°C° 0 mm 1 mps 753 mmHg 60%
    19:00 +19°C° 0 mm 1 mps 753 mmHg 64%
    20:00 +18°C° 0 mm 1 mps 753 mmHg 70%
    21:00 +15°C° 0 mm 1 mps 754 mmHg 75%
    22:00 +13°C° 0 mm 1 mps 754 mmHg 81%
    23:00 +13°C° 0 mm 1 mps 754 mmHg 84%

    9 Junio, Martes

    Tiempo Temperatura Precipitaciones Viento Presión Humedad
    00:00 +12°C° 0 mm 1 mps 754 mmHg 87%
    01:00 +12°C° 0 mm 1 mps 754 mmHg 90%
    02:00 +11°C° 0 mm 1 mps 754 mmHg 90%
    03:00 +11°C° 0 mm 1 mps 755 mmHg 90%
    04:00 +10°C° 0 mm 0 mps 755 mmHg 91%
    05:00 +12°C° 0 mm 0 mps 755 mmHg 83%
    06:00 +14°C° 0 mm 0 mps 755 mmHg 76%
    07:00 +16°C° 0 mm 0 mps 756 mmHg 68%
    08:00 +19°C° 0 mm 1 mps 756 mmHg 62%
    09:00 +21°C° 0 mm 1 mps 756 mmHg 57%
    10:00 +21°C° 0 mm 2 mps 756 mmHg 51%
    11:00 +21°C° 0 mm 2 mps 756 mmHg 49%
    12:00 +22°C° 0 mm 3 mps 755 mmHg 48%
    13:00 +22°C° 0 mm 3 mps 755 mmHg 46%
    14:00 +22°C° 0 mm 3 mps 755 mmHg 46%
    15:00 +24°C° 0 mm 3 mps 755 mmHg 46%
    16:00 +24°C° 0 mm 3 mps 755 mmHg 46%
    17:00 +22°C° 0 mm 3 mps 755 mmHg 52%
    18:00 +21°C° 0 mm 3 mps 755 mmHg 57%
    19:00 +20°C° 0 mm 3 mps 755 mmHg 63%
    20:00 +18°C° 0 mm 3 mps 755 mmHg 69%
    21:00 +17°C° 0 mm 2 mps 756 mmHg 76%
    22:00 +16°C° 0 mm 2 mps 756 mmHg 83%
    23:00 +15°C° 0 mm 2 mps 756 mmHg 84%

    10 Junio, Miércoles

    Tiempo Temperatura Precipitaciones Viento Presión Humedad
    00:00 +15°C° 0 mm 2 mps 756 mmHg 85%
    01:00 +15°C° 0 mm 2 mps 756 mmHg 86%
    02:00 +13°C° 0 mm 3 mps 756 mmHg 88%
    03:00 +12°C° 0 mm 3 mps 756 mmHg 90%
    04:00 +11°C° 0 mm 3 mps 756 mmHg 92%
    05:00 +12°C° 0 mm 3 mps 757 mmHg 87%
    06:00 +13°C° 0 mm 3 mps 757 mmHg 82%
    07:00 +14°C° 0 mm 3 mps 757 mmHg 77%
    08:00 +16°C° 0 mm 3 mps 757 mmHg 71%
    09:00 +17°C° 0 mm 3 mps 757 mmHg 65%
    10:00 +18°C° 0 mm 3 mps 757 mmHg 58%
    11:00 +18°C° 0 mm 4 mps 757 mmHg 57%
    12:00 +19°C° 0 mm 4 mps 756 mmHg 56%
    13:00 +20°C° 0 mm 4 mps 756 mmHg 55%
    14:00 +20°C° 0 mm 4 mps 756 mmHg 56%
    15:00 +20°C° 0 mm 4 mps 756 mmHg 57%
    16:00 +20°C° 0 mm 3 mps 756 mmHg 58%
    17:00 +19°C° 0 mm 3 mps 756 mmHg 60%
    18:00 +18°C° 0 mm 3 mps 756 mmHg 61%
    19:00 +18°C° 0 mm 3 mps 756 mmHg 63%
    20:00 +17°C° 0 mm 3 mps 756 mmHg 63%
    21:00 +15°C° 0 mm 4 mps 756 mmHg 63%
    22:00 +15°C° 0 mm 4 mps 757 mmHg 63%
    23:00 +14°C° 0 mm 3 mps 757 mmHg 66%

    11 Junio, Jueves

    Tiempo Temperatura Precipitaciones Viento Presión Humedad
    00:00 +13°C° 0 mm 3 mps 757 mmHg 68%
    01:00 +12°C° 0 mm 3 mps 757 mmHg 71%
    02:00 +12°C° 0 mm 2 mps 757 mmHg 79%
    03:00 +10°C° 0 mm 2 mps 757 mmHg 87%
    04:00 +9°C° 0 mm 2 mps 757 mmHg 95%
    05:00 +10°C° 0 mm 2 mps 757 mmHg 88%
    06:00 +11°C° 0 mm 3 mps 757 mmHg 82%
    07:00 +13°C° 0 mm 3 mps 757 mmHg 76%
    08:00 +14°C° 0 mm 3 mps 757 mmHg 69%
    09:00 +17°C° 0 mm 4 mps 757 mmHg 62%
    10:00 +19°C° 0 mm 4 mps 757 mmHg 56%
    11:00 +20°C° 0 mm 4 mps 756 mmHg 52%
    12:00 +21°C° 0 mm 4 mps 756 mmHg 49%
    13:00 +22°C° 0 mm 4 mps 755 mmHg 46%
    14:00 +22°C° 0 mm 4 mps 755 mmHg 46%
    15:00 +22°C° 0 mm 4 mps 755 mmHg 45%
    16:00 +22°C° 0 mm 4 mps 755 mmHg 45%
    17:00 +21°C° 0 mm 3 mps 755 mmHg 51%
    18:00 +20°C° 0 mm 3 mps 755 mmHg 56%
    19:00 +19°C° 0 mm 2 mps 755 mmHg 62%
    20:00 +18°C° 0 mm 2 mps 755 mmHg 68%
    21:00 +16°C° 0 mm 2 mps 755 mmHg 75%
    22:00 +15°C° 0 mm 2 mps 756 mmHg 81%
    23:00 +14°C° 0 mm 2 mps 755 mmHg 84%
    Mostrar más